Retour au catalogue

YUNYAO-1 48

ActifScienceSSO
NORAD 63349·PAYLOAD·🇨🇳 China

Lancé Mar 21, 2025 depuis Jiuquan Satellite Launch Center

Loading…

Prochains Passages (prochaines 24 heures)

TLE

FraisSource: Space-Track

Époque: Sep 14, 2026, 13:51 UTC

1 63349U 25059F   26257.57777109  .00002871  00000-0  17213-3 0  9996
2 63349  97.6133  78.7024 0014374 208.4256 151.6191 15.11705618 81806

Suivez YUNYAO-1 48 en temps réel avec AllMySat

Download on the App Store